Tracking 29892 objects as of 21-Nov-2024
HD Live streaming from Space Station
objects crossing your sky now

STARLINK-3526

Track STARLINK-3526 now!
10-day predictions
STARLINK-3526 is classified as:


NORAD ID: 51720
Int'l Code: 2022-016G
Perigee: 545.9 km
Apogee: 547.9 km
Inclination: 53.2 °
Period: 95.4 minutes
Semi major axis: 6917 km
RCS: Unknown
Launch date: February 21, 2022
Source: United States (US)
Launch site: AIR FORCE EASTERN TEST RANGE (AFETR)
Your satellite tracking list
Your tracking list is empty




NASA's NSSDC Master Catalog

Two Line Element Set (TLE):
1 51720U 22016G   24325.90316651 -.00000353  00000-0 -41022-5 0  9990
2 51720  53.2165 296.0005 0001416  89.9203 270.1952 15.08843195151898
Source of the keplerian elements: AFSPC